Temperature
10 10 10 10 10 10 10 10 9 8 8 9 8 8 8 7 7 7 6 6 5 5 4 4 3 3 2 2 1 1 1 0 -0 -1 -1 -1 -1 -1
10 10 10 10 9 9 9 9 9 9 9 9 8 8 8 7 7 6 6 5 5 5 4 3 3 2 2 1 1 1 0 -0 -1 -1 -1 -2 -2 -2
10 9 9 10 9 9 9 9 9 8 8 8 8 7 7 7 6 6 6 5 5 4 4 3 3 2 2 1 1 0 -0 -1 -1 -2 -2 -2 -2 -2
10 9 10 9 9 9 9 9 8 8 8 8 8 7 7 6 6 6 5 5 4 4 3 3 2 2 1 1 0 -0 -1 -1 -2 -2 -2 -3 -3 -3
10 10 10 9 9 9 9 8 8 8 8 7 7 7 6 6 6 5 5 4 4 4 3 3 2 1 1 0 -0 -1 -1 -2 -2 -2 -3 -3 -3 -3
10 10 10 9 9 9 9 8 8 8 7 7 7 6 6 6 5 5 5 4 4 3 3 2 2 1 1 0 -0 -1 -1 -2 -3 -3 -3 -3 -3 -3
9 9 9 9 9 9 8 8 8 7 7 7 6 6 6 6 5 5 5 4 3 3 2 2 1 1 0 -0 -1 -1 -2 -3 -3 -3 -3 -4 -4 -4
9 9 9 9 9 9 8 8 8 7 7 7 6 6 6 6 5 5 4 3 3 2 2 2 1 0 -0 -0 -1 -2 -3 -3 -3 -4 -4 -4 -4 -4
9 9 9 9 8 8 8 8 7 7 7 7 6 6 6 5 5 4 4 3 3 2 2 2 1 0 -1 -1 -2 -2 -3 -3 -3 -4 -4 -4 -4 -4
9 9 8 8 8 8 8 7 7 7 7 6 6 6 5 5 4 4 3 3 2 2 1 1 1 -0 -1 -1 -2 -2 -3 -3 -4 -4 -4 -4 -5 -5
8 8 8 8 8 8 7 7 7 7 6 6 6 5 5 4 4 4 3 2 2 1 1 -0 -0 -0 -1 -1 -2 -2 -3 -3 -4 -4 -4 -4 -5 -5
8 8 8 8 8 8 7 7 7 6 6 6 5 5 4 4 4 3 3 2 1 1 0 -0 -1 -2 -2 -2 -2 -3 -3 -3 -4 -4 -4 -5 -5 -5
8 8 8 8 8 8 7 7 7 7 6 5 5 4 4 4 3 3 2 2 1 0 -0 -1 -1 -2 -3 -3 -2 -3 -3 -4 -4 -4 -4 -4 -5 -5
8 8 8 7 7 7 7 7 6 6 6 5 5 4 4 3 3 2 2 1 1 0 -0 -1 -2 -2 -3 -3 -3 -3 -3 -4 -4 -4 -4 -4 -5 -5
7 7 7 7 7 7 6 6 6 6 5 5 4 4 3 3 2 2 1 1 0 -0 -1 -1 -2 -2 -3 -3 -3 -3 -3 -4 -4 -4 -4 -4 -5 -5
7 7 7 6 6 6 6 5 5 5 5 5 4 3 3 2 2 1 1 0 0 -0 -1 -2 -2 -2 -2 -3 -3 -4 -4 -4 -4 -4 -5 -5 -5 -5
6 6 6 5 5 5 5 5 5 4 4 4 4 3 2 2 1 1 0 0 -0 -0 -1 -2 -2 -2 -3 -3 -3 -4 -4 -4 -4 -5 -5 -5 -5 -5
6 5 5 5 5 5 5 5 4 4 4 3 3 3 2 2 1 1 0 -0 -0 -1 -1 -2 -2 -2 -3 -3 -4 -4 -4 -4 -4 -5 -5 -5 -5 -5
5 5 5 5 5 5 5 4 4 4 3 3 3 2 2 1 1 0 -0 -1 -1 -1 -2 -2 -2 -3 -3 -3 -4 -4 -5 -5 -5 -5 -5 -5 -5 -6
5 5 4 4 4 4 4 4 4 3 3 3 2 2 1 1 1 0 -0 -1 -1 -1 -2 -2 -3 -3 -4 -4 -4 -4 -5 -5 -5 -5 -5 -5 -5 -6
4 4 4 4 4 4 4 4 4 3 3 2 2 1 1 1 0 0 -1 -1 -1 -2 -2 -3 -3 -4 -4 -4 -4 -4 -5 -5 -5 -6 -6 -6 -6 -6
4 4 4 4 4 4 4 3 3 3 2 2 2 1 1 0 0 -0 -1 -1 -2 -2 -3 -3 -3 -4 -4 -4 -4 -4 -5 -5 -5 -6 -6 -6 -7 -7
3 3 3 3 3 3 3 3 3 3 2 2 1 1 1 0 0 -0 -1 -1 -2 -2 -3 -3 -4 -4 -4 -4 -5 -5 -5 -5 -5 -6 -6 -6 -6 -6
Wind_Speed
11 10 8 6 5 5 5 5 6 5 5 4 2 2 3 5 6 6 5 5 4 3 3 4 5 6 7 8 10 11 12 13 14 15 17 18 19 20
10 11 9 6 6 5 5 4 4 5 5 4 3 2 3 3 5 5 5 4 3 3 3 4 5 6 7 8 9 10 11 12 13 15 16 18 18 19
12 12 11 9 7 6 5 5 4 4 4 2 1 1 2 3 2 2 3 3 2 3 3 3 4 5 6 7 8 10 11 12 13 14 16 17 18 19
14 13 12 9 9 7 6 6 5 4 4 4 2 2 2 3 2 1 1 1 1 2 3 3 5 5 6 7 8 9 9 11 12 14 15 16 17 18
14 14 13 12 10 8 8 7 5 4 4 4 3 2 1 1 2 1 0 1 0 1 2 3 5 5 6 6 7 8 9 10 12 13 14 15 16 18
12 12 12 13 12 11 9 8 7 6 4 4 3 2 2 1 2 1 0 0 1 1 2 3 4 4 5 6 6 7 8 10 12 13 14 15 16 17
11 11 11 13 14 12 9 9 9 7 5 5 4 3 3 2 3 2 2 1 1 0 2 2 2 2 3 5 6 7 8 10 11 12 13 14 15 16
12 11 11 12 14 15 15 14 13 10 9 7 5 5 5 4 3 3 2 1 2 1 1 2 1 2 3 3 5 7 8 10 11 12 13 14 15 15
12 11 9 9 12 10 11 11 11 11 12 10 8 7 7 7 6 4 3 2 3 2 0 2 1 2 3 3 5 6 8 9 11 12 13 13 14 15
11 11 11 10 10 11 9 8 6 6 8 7 7 7 6 7 7 6 5 2 1 0 1 1 1 2 3 4 4 6 8 9 11 12 13 13 14 14
10 10 11 11 15 16 12 9 7 4 5 8 8 7 8 9 9 6 4 3 1 1 0 0 1 2 2 2 4 6 8 9 11 12 12 13 13 13
8 9 13 13 17 18 13 11 10 7 7 7 6 6 6 8 9 6 6 3 2 2 1 1 0 1 2 2 3 4 6 8 11 11 12 13 13 8
8 8 8 15 17 17 14 10 12 10 8 7 6 5 4 4 4 4 3 4 3 2 3 2 1 0 1 2 3 3 3 4 6 8 11 12 12 10
8 7 8 15 16 16 12 12 15 13 7 7 6 5 4 3 3 3 3 3 2 3 5 3 2 2 1 1 2 3 4 4 4 5 7 11 11 12
6 10 12 15 15 11 13 16 14 9 8 7 6 5 4 4 4 4 4 5 5 3 2 1 2 2 1 2 2 2 3 3 4 4 6 6 5 6
6 9 12 13 10 10 11 10 7 7 7 7 6 5 5 5 4 3 2 2 3 2 3 3 0 2 1 2 2 3 3 3 4 5 6 5 6 5
7 5 5 7 6 6 6 6 6 6 6 6 7 6 5 5 4 3 3 2 2 1 1 2 4 2 1 2 1 2 3 4 4 5 5 6 5 5
9 7 7 7 8 8 8 7 6 6 6 7 7 7 6 6 5 4 3 2 2 2 1 0 1 3 3 2 3 3 3 3 4 5 4 4 6 5
7 7 7 7 8 8 8 7 6 6 7 7 7 7 6 6 6 5 4 2 2 2 1 1 0 1 1 2 3 3 2 3 4 4 4 3 4 6
5 7 7 7 7 8 8 7 7 7 7 7 7 7 7 6 6 5 4 4 3 2 1 1 1 1 1 2 2 3 5 3 3 4 4 4 5 7
5 6 6 7 7 7 7 7 8 8 8 7 7 7 7 6 6 5 5 6 4 3 3 2 2 1 1 1 1 2 3 5 4 3 3 4 4 4
6 6 6 7 7 7 8 8 7 7 8 7 7 7 6 6 7 7 6 6 4 3 2 1 0 1 1 1 1 2 3 5 6 6 4 3 2 3
6 6 6 7 7 7 7 8 9 8 7 7 7 7 7 6 6 6 6 5 4 4 3 2 1 1 1 0 0 1 3 4 4 5 4 7 7 7
Wind_Direction
189 187 189 190 180 177 166 164 167 191 220 216 203 202 186 184 191 186 200 216 234 254 282 302 312 322 328 330 332 334 337 338 338 337 336 337 337 337
188 187 192 192 182 176 176 174 174 181 207 203 190 175 163 169 188 183 198 212 231 254 289 302 312 321 324 326 329 333 337 337 338 338 338 339 338 339
190 190 194 186 185 184 175 175 181 174 197 204 154 139 148 163 149 169 186 197 225 252 290 305 315 318 322 326 330 334 337 338 338 339 340 340 339 338
194 192 193 187 187 183 181 184 186 182 181 190 180 160 168 177 166 172 156 182 210 249 292 309 318 317 321 324 331 337 340 341 341 341 341 341 341 340
194 193 191 186 191 188 184 187 186 178 171 169 176 160 155 144 136 134 108 61 275 270 292 309 315 317 322 327 335 342 345 345 343 343 343 344 343 341
194 193 191 191 192 186 188 188 179 174 166 158 163 155 155 134 136 158 216 308 305 334 323 315 318 328 337 339 342 347 348 346 344 344 345 345 344 342
191 192 192 190 187 186 186 185 179 180 173 174 174 167 172 165 185 180 198 276 286 323 318 309 329 338 337 339 342 344 348 348 347 346 345 346 346 344
189 190 191 189 186 184 182 181 180 183 188 188 193 193 200 193 172 168 157 149 249 252 268 282 329 306 321 322 333 344 348 350 349 346 346 347 347 345
189 189 188 187 183 184 179 177 182 181 184 188 192 201 193 189 172 170 181 189 212 211 227 252 278 281 295 305 327 343 346 349 348 345 345 347 347 346
188 187 184 182 181 174 170 175 184 189 187 186 190 192 186 177 175 172 168 132 80 107 99 215 272 287 301 297 310 340 346 347 347 345 344 346 345 345
186 185 183 183 176 167 167 170 165 163 150 150 147 147 148 151 143 126 127 121 160 207 132 123 287 319 303 281 301 330 341 344 345 345 345 344 344 347
182 185 183 181 175 170 174 174 174 171 150 136 129 129 132 142 143 149 161 154 145 197 202 132 167 1 317 287 296 314 330 337 343 344 343 343 345 350
182 187 187 176 173 173 174 179 174 158 152 145 139 131 122 125 128 125 141 155 157 190 185 145 163 199 223 287 299 308 324 324 330 334 339 340 343 344
183 182 178 170 169 169 172 164 152 145 145 145 146 149 149 146 132 115 101 88 113 177 183 170 178 200 228 281 277 303 315 311 322 325 329 333 337 338
171 166 164 164 163 165 160 155 150 151 153 155 163 165 155 145 126 106 86 78 65 65 114 208 199 206 207 228 256 286 307 306 318 323 321 320 319 325
145 148 150 153 151 151 154 154 154 161 160 162 156 143 133 133 133 126 119 104 73 34 21 25 318 189 215 246 242 268 283 290 312 319 316 311 314 317
140 137 142 150 153 153 150 148 151 152 149 144 144 143 143 141 141 136 129 120 108 125 356 0 7 5 226 205 236 261 284 297 301 315 322 318 307 311
145 154 160 162 164 165 163 161 161 160 156 152 151 154 155 155 150 145 141 141 138 150 161 351 14 18 18 333 226 245 281 292 310 317 320 315 312 318
151 162 167 169 168 168 167 166 167 162 156 155 156 157 156 156 156 155 154 148 140 143 159 166 99 63 46 319 295 255 255 305 322 326 323 312 301 306
164 166 169 170 169 168 165 161 156 153 155 156 156 156 157 158 160 160 162 160 149 138 145 188 206 211 205 219 252 274 286 297 313 319 320 311 298 301
168 167 166 167 167 164 159 156 157 159 158 157 157 158 161 159 160 159 159 155 142 148 169 213 251 322 31 62 13 315 302 311 312 298 308 317 322 329
171 169 165 162 163 161 155 154 154 156 157 156 159 162 163 162 160 158 159 162 162 157 159 167 47 38 51 63 335 303 317 328 332 333 322 299 309 324
170 166 161 159 160 158 156 157 157 160 161 160 160 162 162 157 154 154 155 154 149 142 134 125 54 31 27 71 345 315 323 334 342 348 342 342 335 323
Height
1461 1465 1469 1473 1476 1479 1482 1484 1486 1486 1486 1487 1488 1489 1490 1490 1490 1489 1488 1487 1485 1483 1481 1479 1476 1474 1471 1468 1465 1462 1459 1455 1452 1448 1444 1440 1436 1432
1456 1460 1464 1468 1471 1474 1477 1479 1481 1483 1483 1483 1484 1485 1486 1486 1486 1485 1484 1483 1481 1479 1477 1475 1473 1470 1467 1464 1462 1458 1455 1452 1448 1445 1441 1437 1434 1430
1450 1454 1458 1463 1466 1469 1472 1474 1477 1478 1479 1479 1480 1481 1482 1482 1482 1481 1480 1479 1477 1475 1473 1471 1469 1466 1464 1461 1458 1455 1452 1449 1445 1442 1438 1435 1431 1427
1443 1448 1452 1457 1461 1464 1467 1469 1472 1473 1475 1475 1476 1477 1478 1478 1478 1477 1476 1475 1473 1471 1469 1467 1465 1463 1460 1457 1455 1452 1449 1446 1442 1439 1436 1432 1428 1424
1438 1442 1446 1451 1455 1458 1461 1464 1466 1469 1470 1471 1472 1473 1473 1473 1473 1472 1472 1471 1469 1467 1466 1464 1462 1459 1456 1454 1451 1449 1446 1443 1440 1436 1433 1429 1426 1422
1433 1436 1441 1445 1449 1452 1456 1459 1461 1464 1465 1466 1467 1468 1468 1468 1468 1468 1467 1466 1465 1464 1462 1460 1458 1456 1453 1451 1448 1445 1443 1440 1437 1434 1431 1427 1423 1420
1427 1431 1435 1440 1443 1447 1450 1453 1456 1458 1460 1461 1462 1463 1463 1463 1463 1463 1463 1462 1461 1460 1458 1456 1454 1452 1450 1447 1445 1443 1440 1437 1435 1432 1428 1425 1421 1418
1421 1426 1430 1435 1438 1442 1445 1448 1451 1453 1454 1456 1456 1457 1457 1458 1458 1459 1459 1457 1456 1456 1454 1452 1451 1448 1446 1444 1442 1440 1437 1435 1432 1429 1426 1423 1419 1415
1416 1421 1425 1429 1433 1436 1440 1443 1445 1447 1449 1451 1452 1452 1453 1454 1454 1454 1454 1454 1453 1451 1450 1448 1447 1445 1443 1441 1439 1437 1435 1432 1429 1426 1423 1420 1417 1413
1411 1415 1419 1423 1427 1431 1434 1437 1439 1441 1444 1446 1447 1448 1449 1450 1450 1451 1451 1450 1449 1448 1447 1445 1443 1442 1441 1439 1437 1435 1432 1430 1427 1424 1421 1418 1415 1411
1406 1410 1414 1418 1421 1425 1429 1431 1434 1436 1439 1441 1442 1443 1445 1446 1446 1446 1446 1446 1445 1444 1444 1443 1440 1438 1437 1436 1434 1432 1430 1427 1424 1421 1418 1415 1412 1409
1400 1405 1409 1413 1416 1420 1423 1426 1428 1430 1433 1435 1437 1439 1440 1441 1442 1442 1443 1442 1442 1441 1441 1440 1438 1437 1434 1433 1432 1430 1428 1425 1422 1419 1416 1413 1410 1407
1395 1399 1403 1407 1411 1414 1418 1420 1423 1426 1428 1431 1433 1434 1436 1437 1437 1438 1439 1439 1439 1438 1438 1437 1435 1434 1433 1431 1429 1428 1425 1422 1420 1417 1414 1411 1408 1405
1390 1393 1398 1402 1406 1409 1413 1416 1419 1422 1424 1426 1428 1430 1431 1432 1434 1435 1435 1436 1436 1436 1435 1435 1433 1432 1430 1428 1426 1424 1423 1421 1418 1415 1412 1409 1406 1403
1385 1389 1393 1397 1401 1405 1408 1411 1414 1417 1419 1421 1423 1425 1427 1429 1430 1431 1432 1433 1433 1433 1433 1432 1431 1430 1429 1427 1424 1422 1420 1418 1416 1413 1410 1407 1404 1401
1381 1385 1389 1393 1396 1400 1403 1407 1410 1412 1415 1417 1419 1422 1424 1425 1427 1428 1429 1429 1430 1430 1430 1430 1429 1428 1426 1425 1423 1421 1419 1416 1413 1411 1408 1405 1403 1400
1376 1380 1384 1387 1391 1395 1399 1402 1405 1408 1411 1413 1416 1418 1420 1422 1423 1425 1426 1427 1427 1427 1427 1427 1427 1426 1424 1423 1421 1419 1417 1415 1412 1409 1406 1404 1401 1399
1372 1375 1379 1383 1386 1390 1393 1397 1400 1404 1406 1409 1412 1414 1416 1418 1420 1421 1423 1424 1424 1424 1424 1424 1424 1423 1422 1421 1420 1418 1415 1413 1410 1408 1405 1402 1400 1398
1368 1371 1375 1378 1382 1386 1389 1393 1396 1400 1403 1406 1408 1410 1413 1415 1417 1418 1419 1421 1422 1422 1422 1422 1421 1420 1419 1418 1418 1417 1414 1411 1409 1407 1404 1402 1399 1397
1364 1367 1371 1374 1378 1382 1385 1389 1393 1396 1399 1402 1405 1407 1410 1411 1413 1415 1417 1418 1419 1419 1420 1420 1420 1419 1418 1418 1416 1415 1413 1411 1408 1405 1403 1401 1398 1396
1361 1364 1368 1371 1375 1379 1382 1386 1389 1392 1396 1399 1401 1404 1406 1408 1410 1412 1414 1416 1417 1417 1417 1418 1418 1418 1417 1417 1415 1414 1412 1410 1407 1405 1402 1399 1397 1394
1358 1361 1364 1368 1372 1375 1379 1383 1386 1389 1393 1396 1398 1401 1403 1406 1408 1410 1412 1413 1414 1415 1416 1417 1417 1417 1416 1415 1414 1412 1411 1409 1407 1405 1402 1400 1397 1394
1354 1358 1361 1365 1368 1372 1376 1380 1383 1387 1390 1393 1395 1398 1401 1403 1406 1408 1410 1411 1413 1414 1415 1415 1415 1415 1415 1414 1413 1412 1410 1408 1406 1404 1402 1399 1397 1395